Location: Caltech
(34.1382°N, 118.1253°W)
Time: 13:24:19
(UTC-07:00)

Cosmos 2219 Rocket - Visible Passes

Search period start: 26 May 2016 00:00
Search period end: 05 June 2016 00:00
Orbit: 829 x 846 km, 71.0° (Epoch: 26 May)

Date Brightness Start Highest point End Pass type
(mag) Time Alt. Az. Time Alt. Az. Time Alt. Az.
26 May 5.5 04:15:26 10° NNE 04:18:13 14° NE 04:20:58 10° E visible
26 May 5.2 20:45:26 10° WSW 20:49:30 20° WNW 20:53:35 10° NNW visible
27 May 5.5 03:59:27 10° NNE 04:01:49 13° NE 04:04:11 10° E visible
27 May 5.2 20:28:52 10° WSW 20:33:07 22° WNW 20:37:24 10° N visible
28 May 5.5 03:43:33 10° NNE 03:45:25 12° NE 03:47:16 10° ENE visible
29 May 5.5 03:27:53 10° NE 03:29:00 11° NE 03:30:07 10° ENE visible
29 May 2.3 05:08:08 10° NNW 05:13:45 86° ENE 05:19:20 10° SSE visible
30 May 2.4 04:51:49 10° NNW 04:57:26 79° ENE 05:03:00 10° SSE visible
31 May 2.5 04:35:30 10° NNW 04:41:05 73° ENE 04:46:39 10° SSE visible
01 Jun 2.6 04:19:12 10° NNW 04:24:46 67° ENE 04:30:18 10° SSE visible
02 Jun 2.7 04:02:53 10° NNW 04:08:26 61° ENE 04:13:55 10° SSE visible
03 Jun 2.8 03:46:35 10° NNW 03:52:05 56° ENE 03:57:33 10° SE visible
04 Jun 3.0 03:30:18 10° N 03:35:45 51° ENE 03:41:09 10° SE visible
